When you browse on this site, cookies collect data to enhance your experience and personalize the content and advertising you see.
Visit our Privacy Policy to learn more. By continuing to use the site, you agree to this use of cookies and data.

Stündliche Wetter Tegu

Heute, 14 Juli, Dienstag

Zeit Temperatur Niederschläge Wind Luftdruck Luftfeuchtigkeit
00:00 +21°C° 0.2 mm 1 m/S 746 mmHg 96%
01:00 +21°C° 0.2 mm 1 m/S 745 mmHg 96%
02:00 +21°C° 0.2 mm 1 m/S 745 mmHg 96%
03:00 +21°C° 0.2 mm 1 m/S 745 mmHg 96%
04:00 +21°C° 0.3 mm 1 m/S 745 mmHg 96%
05:00 +21°C° 0.3 mm 1 m/S 745 mmHg 96%
06:00 +21°C° 0.3 mm 1 m/S 745 mmHg 96%
07:00 +21°C° 0.5 mm 1 m/S 745 mmHg 96%
08:00 +21°C° 0.5 mm 1 m/S 745 mmHg 96%
09:00 +21°C° 0.5 mm 1 m/S 745 mmHg 95%
10:00 +21°C° 0.4 mm 1 m/S 745 mmHg 95%
11:00 +21°C° 0.4 mm 1 m/S 746 mmHg 94%
12:00 +21°C° 0.4 mm 1 m/S 746 mmHg 93%
13:00 +21°C° 0.5 mm 1 m/S 746 mmHg 93%
14:00 +21°C° 0.5 mm 1 m/S 746 mmHg 93%
15:00 +19°C° 0.5 mm 0 m/S 746 mmHg 93%
16:00 +19°C° 0.5 mm 0 m/S 746 mmHg 93%
17:00 +21°C° 0.5 mm 1 m/S 746 mmHg 93%
18:00 +21°C° 0.5 mm 1 m/S 746 mmHg 94%
19:00 +21°C° 0.3 mm 1 m/S 747 mmHg 94%
20:00 +21°C° 0.3 mm 1 m/S 747 mmHg 94%
21:00 +18°C° 0.3 mm 0 m/S 747 mmHg 94%
22:00 +18°C° 0.2 mm 0 m/S 747 mmHg 94%
23:00 +18°C° 0.2 mm 0 m/S 748 mmHg 94%

Morgen, 15 Juli, Mittwoch

Zeit Temperatur Niederschläge Wind Luftdruck Luftfeuchtigkeit
00:00 +18°C° 0.2 mm 0 m/S 748 mmHg 94%
01:00 +18°C° 0.3 mm 0 m/S 748 mmHg 94%
02:00 +18°C° 0.3 mm 0 m/S 747 mmHg 94%
03:00 +18°C° 0.3 mm 0 m/S 747 mmHg 95%
04:00 +18°C° 0.5 mm 0 m/S 748 mmHg 95%
05:00 +17°C° 0.5 mm 0 m/S 748 mmHg 95%
06:00 +17°C° 0.5 mm 0 m/S 748 mmHg 95%
07:00 +18°C° 0.5 mm 0 m/S 748 mmHg 94%
08:00 +18°C° 0.5 mm 0 m/S 748 mmHg 94%
09:00 +18°C° 0.5 mm 0 m/S 749 mmHg 94%
10:00 +18°C° 0.1 mm 0 m/S 749 mmHg 92%
11:00 +19°C° 0.1 mm 0 m/S 749 mmHg 90%
12:00 +19°C° 0.1 mm 0 m/S 749 mmHg 88%
13:00 +23°C° 0 mm 1 m/S 749 mmHg 82%
14:00 +24°C° 0 mm 1 m/S 748 mmHg 75%
15:00 +26°C° 0 mm 1 m/S 748 mmHg 69%
16:00 +25°C° 0 mm 1 m/S 748 mmHg 71%
17:00 +25°C° 0 mm 1 m/S 748 mmHg 72%
18:00 +25°C° 0 mm 1 m/S 748 mmHg 74%
19:00 +23°C° 0 mm 1 m/S 748 mmHg 79%
20:00 +22°C° 0 mm 1 m/S 749 mmHg 85%
21:00 +20°C° 0 mm 1 m/S 749 mmHg 90%
22:00 +18°C° 0 mm 0 m/S 749 mmHg 91%
23:00 +17°C° 0 mm 0 m/S 749 mmHg 91%

übermorgen, 16 Juli, Donnerstag

Zeit Temperatur Niederschläge Wind Luftdruck Luftfeuchtigkeit
00:00 +17°C° 0 mm 0 m/S 749 mmHg 92%
01:00 +17°C° 0 mm 0 m/S 749 mmHg 92%
02:00 +17°C° 0 mm 0 m/S 749 mmHg 93%
03:00 +16°C° 0 mm 0 m/S 749 mmHg 93%
04:00 +17°C° 0 mm 0 m/S 749 mmHg 93%
05:00 +17°C° 0 mm 0 m/S 749 mmHg 94%
06:00 +17°C° 0 mm 0 m/S 750 mmHg 94%
07:00 +19°C° 0 mm 0 m/S 750 mmHg 87%
08:00 +21°C° 0 mm 0 m/S 750 mmHg 80%
09:00 +25°C° 0 mm 1 m/S 750 mmHg 73%
10:00 +27°C° 0 mm 1 m/S 750 mmHg 66%
11:00 +29°C° 0 mm 1 m/S 749 mmHg 59%
12:00 +30°C° 0 mm 1 m/S 749 mmHg 51%
13:00 +31°C° 0 mm 1 m/S 749 mmHg 49%
14:00 +31°C° 0 mm 1 m/S 749 mmHg 47%
15:00 +32°C° 0 mm 1 m/S 748 mmHg 45%
16:00 +31°C° 0 mm 1 m/S 748 mmHg 50%
17:00 +30°C° 0 mm 1 m/S 748 mmHg 56%
18:00 +29°C° 0 mm 1 m/S 748 mmHg 61%
19:00 +27°C° 0 mm 1 m/S 749 mmHg 68%
20:00 +24°C° 0 mm 1 m/S 749 mmHg 74%
21:00 +22°C° 0 mm 1 m/S 750 mmHg 81%
22:00 +22°C° 0 mm 1 m/S 750 mmHg 83%
23:00 +21°C° 0 mm 1 m/S 750 mmHg 85%

17 Juli, Freitag

Zeit Temperatur Niederschläge Wind Luftdruck Luftfeuchtigkeit
00:00 +20°C° 0 mm 1 m/S 750 mmHg 88%
01:00 +20°C° 0 mm 1 m/S 750 mmHg 89%
02:00 +18°C° 0 mm 0 m/S 750 mmHg 89%
03:00 +17°C° 0 mm 0 m/S 750 mmHg 90%
04:00 +18°C° 0 mm 0 m/S 750 mmHg 90%
05:00 +18°C° 0 mm 0 m/S 750 mmHg 90%
06:00 +18°C° 0 mm 0 m/S 750 mmHg 90%
07:00 +20°C° 0 mm 0 m/S 750 mmHg 82%
08:00 +22°C° 0 mm 0 m/S 750 mmHg 74%
09:00 +24°C° 0 mm 0 m/S 751 mmHg 66%
10:00 +28°C° 0 mm 1 m/S 751 mmHg 60%
11:00 +29°C° 0 mm 1 m/S 751 mmHg 54%
12:00 +31°C° 0 mm 2 m/S 751 mmHg 48%
13:00 +31°C° 0 mm 2 m/S 750 mmHg 48%
14:00 +31°C° 0 mm 2 m/S 750 mmHg 48%
15:00 +31°C° 0 mm 3 m/S 750 mmHg 48%
16:00 +30°C° 0 mm 3 m/S 750 mmHg 53%
17:00 +29°C° 0 mm 2 m/S 750 mmHg 57%
18:00 +28°C° 0 mm 2 m/S 750 mmHg 62%
19:00 +26°C° 0 mm 2 m/S 750 mmHg 69%
20:00 +24°C° 0 mm 2 m/S 751 mmHg 77%
21:00 +22°C° 0 mm 1 m/S 751 mmHg 84%
22:00 +21°C° 0 mm 1 m/S 751 mmHg 86%
23:00 +21°C° 0 mm 1 m/S 751 mmHg 88%

18 Juli, Samstag

Zeit Temperatur Niederschläge Wind Luftdruck Luftfeuchtigkeit
00:00 +20°C° 0 mm 1 m/S 751 mmHg 91%
01:00 +20°C° 0 mm 1 m/S 751 mmHg 92%
02:00 +20°C° 0 mm 1 m/S 751 mmHg 93%
03:00 +20°C° 0 mm 1 m/S 750 mmHg 93%
04:00 +20°C° 0 mm 1 m/S 750 mmHg 94%
05:00 +20°C° 0 mm 1 m/S 750 mmHg 94%
06:00 +20°C° 0 mm 1 m/S 750 mmHg 94%
07:00 +22°C° 0 mm 1 m/S 751 mmHg 88%
08:00 +23°C° 0 mm 1 m/S 751 mmHg 82%
09:00 +25°C° 0 mm 1 m/S 751 mmHg 76%
10:00 +26°C° 0 mm 2 m/S 751 mmHg 73%
11:00 +27°C° 0 mm 2 m/S 751 mmHg 70%
12:00 +28°C° 0 mm 2 m/S 751 mmHg 66%
13:00 +28°C° 0 mm 2 m/S 750 mmHg 69%
14:00 +28°C° 0 mm 2 m/S 750 mmHg 72%
15:00 +27°C° 0 mm 2 m/S 750 mmHg 75%
16:00 +26°C° 0.1 mm 2 m/S 750 mmHg 80%
17:00 +25°C° 0.1 mm 2 m/S 750 mmHg 85%
18:00 +24°C° 0.1 mm 1 m/S 750 mmHg 90%
19:00 +24°C° 0 mm 1 m/S 750 mmHg 91%
20:00 +23°C° 0 mm 1 m/S 750 mmHg 92%
21:00 +23°C° 0 mm 1 m/S 750 mmHg 93%
22:00 +23°C° 0.1 mm 1 m/S 750 mmHg 94%
23:00 +23°C° 0.1 mm 1 m/S 750 mmHg 94%

19 Juli, Sonntag

Zeit Temperatur Niederschläge Wind Luftdruck Luftfeuchtigkeit
00:00 +23°C° 0.1 mm 1 m/S 750 mmHg 94%
01:00 +23°C° 0 mm 1 m/S 749 mmHg 95%
02:00 +23°C° 0 mm 1 m/S 749 mmHg 95%
03:00 +23°C° 0 mm 1 m/S 749 mmHg 95%
04:00 +24°C° 0 mm 1 m/S 749 mmHg 95%
05:00 +24°C° 0 mm 1 m/S 749 mmHg 96%
06:00 +24°C° 0 mm 1 m/S 748 mmHg 96%
07:00 +25°C° 0 mm 2 m/S 749 mmHg 95%
08:00 +26°C° 0 mm 2 m/S 749 mmHg 94%
09:00 +27°C° 0 mm 2 m/S 749 mmHg 93%
10:00 +28°C° 0.1 mm 2 m/S 749 mmHg 90%
11:00 +29°C° 0.1 mm 2 m/S 749 mmHg 86%
12:00 +30°C° 0.1 mm 2 m/S 749 mmHg 82%
13:00 +31°C° 0.6 mm 2 m/S 749 mmHg 81%
14:00 +31°C° 0.6 mm 3 m/S 749 mmHg 80%
15:00 +31°C° 0.6 mm 3 m/S 749 mmHg 79%
16:00 +30°C° 0.9 mm 3 m/S 749 mmHg 83%
17:00 +30°C° 0.9 mm 3 m/S 749 mmHg 86%
18:00 +29°C° 0.9 mm 2 m/S 750 mmHg 89%
19:00 +28°C° 0.1 mm 2 m/S 750 mmHg 91%
20:00 +27°C° 0.1 mm 1 m/S 751 mmHg 93%
21:00 +26°C° 0.1 mm 1 m/S 751 mmHg 94%
22:00 +26°C° 0 mm 1 m/S 751 mmHg 95%
23:00 +26°C° 0 mm 1 m/S 752 mmHg 95%
Mehr zeigen